Theta_e
313 313 314 314 314 314 314 313 313 313 313 313 313 311 308 309 306 293 291 300 306 314 313 300 294 294 298 298 297 301 293 289 289 291 289 284 284 284 284 283 282 284 284 286 289
312 312 313 313 313 313 313 313 313 312 312 312 312 311 307 307 291 288 299 311 312 313 296 292 296 298 293 294 293 294 291 290 287 285 285 283 282 281 280 280 280 281 284 287 288
311 312 312 312 313 313 313 312 312 312 312 312 312 311 308 302 289 286 307 310 311 307 294 293 294 295 290 289 287 285 289 285 283 283 283 283 281 282 280 280 282 282 283 285 286
310 311 311 312 312 312 312 312 312 312 311 311 312 311 309 290 281 289 306 307 308 297 293 292 291 289 287 287 286 286 285 284 285 284 283 281 282 281 282 283 285 285 284 285 286
309 310 310 311 311 312 312 312 312 312 311 310 311 311 293 284 283 292 303 298 293 292 289 289 288 287 285 284 285 284 282 283 284 283 281 283 281 281 282 284 284 284 285 286 286
308 309 310 310 311 311 311 311 312 312 310 310 311 308 286 280 290 291 291 292 291 290 288 288 286 287 284 282 282 281 282 281 281 282 282 281 280 281 281 284 283 284 284 285 286
308 308 309 310 310 310 311 311 311 312 310 310 311 291 286 283 289 290 291 290 291 289 287 288 287 286 283 281 282 283 279 280 279 281 281 280 280 280 281 282 283 284 284 285 285
308 308 309 310 310 310 310 310 311 310 309 309 305 287 282 290 290 291 291 290 292 292 290 290 289 285 283 282 281 279 278 276 279 281 281 279 280 281 282 282 282 282 282 283 284
309 308 309 309 309 310 308 309 309 307 304 305 290 284 281 295 289 290 290 289 290 291 291 292 288 283 282 279 277 277 275 274 277 280 279 279 279 282 282 281 281 281 281 282 283
309 309 309 309 309 309 306 305 304 298 294 292 291 285 286 284 288 290 289 290 289 288 288 286 283 280 278 278 275 275 275 275 274 277 277 277 279 283 283 281 281 281 281 281 282
309 309 308 309 309 306 294 288 286 287 287 282 282 283 285 289 290 288 290 289 288 286 280 282 280 276 274 275 275 276 274 274 275 278 277 275 277 282 282 281 282 282 282 281 282
309 309 308 309 307 302 291 286 286 287 280 285 286 285 287 288 284 287 291 285 284 280 281 280 276 278 281 279 279 278 275 275 277 278 277 276 278 283 281 280 281 282 280 282 282
309 308 308 308 303 292 289 288 293 290 280 283 285 284 285 287 282 284 288 284 281 279 278 277 277 281 280 278 279 276 276 274 275 278 275 274 277 280 279 280 281 281 281 281 283
309 308 308 305 294 289 287 292 293 290 275 280 281 283 286 286 282 287 287 284 281 278 277 277 279 280 279 278 278 277 277 277 277 276 274 275 274 279 277 280 281 282 280 280 281
309 307 307 300 289 287 290 293 291 288 271 281 281 286 286 282 281 284 286 284 280 280 280 277 276 278 278 279 279 278 278 277 277 274 273 272 272 277 277 280 281 282 282 281 282
309 307 304 294 289 290 292 291 289 280 272 276 280 280 281 281 281 283 284 286 282 280 279 277 279 278 278 280 279 280 277 277 275 274 269 271 272 276 279 280 279 280 281 282 282
309 307 299 294 286 292 291 288 279 275 280 276 275 279 279 278 280 280 280 278 277 274 273 277 277 277 279 277 278 278 275 272 271 268 272 271 271 278 280 281 280 280 281 282 282
308 304 298 295 293 290 287 281 271 275 275 279 279 278 277 277 278 278 276 274 277 277 271 273 274 276 278 276 276 276 275 272 267 269 271 274 272 280 281 280 282 282 281 281 281
305 294 294 294 293 289 284 271 276 276 280 278 278 275 273 277 276 275 274 273 278 278 275 271 274 276 279 277 277 275 272 275 270 266 267 272 276 281 282 281 282 282 281 282 282
297 292 291 294 290 285 278 278 275 281 280 278 277 276 269 268 272 273 272 277 278 279 276 276 272 276 277 277 276 275 278 272 270 266 264 272 273 277 280 281 280 281 281 282 282
297 290 291 292 287 281 280 274 276 281 281 279 278 273 275 272 272 268 273 276 278 277 277 271 274 273 275 272 274 273 272 271 270 271 268 267 273 279 280 281 282 282 282 282 282
294 286 292 289 283 277 278 276 282 281 280 279 278 279 277 276 271 270 273 276 279 279 277 276 272 270 272 274 275 275 274 274 270 268 268 270 271 280 281 281 281 282 282 282 282
289 288 293 290 283 279 280 279 280 279 279 278 278 279 278 278 274 275 276 278 279 278 276 276 270 265 271 272 273 269 275 276 274 272 266 268 274 281 279 280 281 281 282 282 282
289 285 285 286 286 288 281 282 280 280 280 279 279 279 278 277 277 272 277 279 280 279 285 282 271 272 273 273 270 266 268 273 271 266 270 272 278 282 286 284 283 282 281 282 282
291 286 286 279 282 285 286 287 284 280 279 280 277 278 277 273 275 275 277 276 278 282 280 276 269 268 269 272 269 270 268 271 271 275 272 279 275 282 285 286 281 281 280 280 280
290 287 285 285 285 284 287 288 289 287 278 276 277 278 278 278 279 278 277 276 277 278 277 274 268 266 266 272 273 271 273 272 275 276 276 277 277 284 286 286 285 284 282 281 281
297 292 289 291 285 283 286 287 289 289 285 288 280 280 277 279 282 280 280 281 281 278 277 272 268 265 266 271 271 270 273 273 275 276 278 275 281 286 285 284 282 282 281 282 282
Wind_Speed
16 15 15 15 15 16 15 15 14 13 13 13 13 12 9 11 8 5 6 7 11 19 15 4 1 1 2 4 5 3 5 2 6 7 3 2 2 2 1 2 2 2 2 2 1
16 16 16 16 16 15 15 14 13 13 14 13 13 12 10 9 4 7 3 17 18 16 7 4 3 2 5 4 4 5 4 6 2 2 3 2 1 0 2 1 2 2 2 2 2
16 16 16 16 16 15 15 14 14 12 13 13 11 10 10 6 3 4 17 21 19 11 3 2 1 3 6 4 5 3 3 5 2 2 1 2 0 1 3 5 7 8 5 3 3
17 17 16 16 16 16 16 15 13 11 11 12 10 9 6 3 1 3 20 22 16 7 2 2 5 5 5 4 2 6 3 2 3 1 2 2 1 3 7 6 6 8 5 3 5
18 18 18 18 17 17 16 15 13 11 9 10 10 4 2 4 3 7 19 15 5 3 5 3 4 3 5 4 2 4 3 4 4 4 0 2 4 5 9 9 5 6 6 7 7
17 18 19 19 19 19 16 16 13 10 7 7 7 4 2 4 4 8 10 7 7 5 5 6 3 4 7 4 4 2 4 3 2 3 1 2 3 3 5 7 7 8 10 9 9
18 19 19 20 20 20 18 17 13 9 6 5 4 2 6 2 2 7 8 3 5 3 4 4 2 6 4 5 2 3 4 2 2 4 1 1 6 11 4 4 9 9 9 8 9
18 18 19 20 21 21 21 18 12 6 5 2 2 2 2 2 2 5 8 3 6 5 4 2 7 8 5 4 6 4 5 1 1 7 1 2 10 3 4 8 11 10 9 8 8
18 19 20 21 22 21 21 14 7 5 1 4 2 2 2 4 5 5 5 4 6 2 5 4 7 5 4 5 4 6 2 1 3 3 3 3 8 4 4 7 10 10 10 9 8
18 20 21 22 22 20 19 5 5 3 6 1 3 5 7 4 5 5 4 4 3 2 3 7 6 4 5 5 4 3 2 3 5 4 3 4 17 12 7 8 12 11 10 9 9
17 19 21 22 22 18 8 4 6 4 11 3 0 1 3 7 2 4 4 5 2 8 3 4 7 2 2 1 2 5 2 1 2 2 4 3 9 24 8 10 14 15 13 11 13
16 18 19 20 14 14 5 7 3 1 2 1 1 2 2 1 4 4 6 3 5 2 5 5 4 2 1 1 4 4 1 3 4 2 2 5 17 22 9 8 10 12 10 13 7
16 18 20 20 6 7 6 3 3 1 1 1 1 1 3 2 2 6 5 2 6 5 5 4 2 2 2 3 2 3 1 1 3 7 1 8 9 7 2 4 5 8 8 7 12
15 18 21 20 7 2 4 5 3 1 7 4 1 1 1 1 2 2 3 3 5 5 3 5 2 2 2 3 1 1 1 1 2 6 4 5 8 10 4 9 6 7 6 8 9
11 14 18 14 3 4 3 5 3 3 5 1 2 1 3 2 2 4 2 4 5 4 3 2 2 1 1 2 0 2 1 2 2 3 3 0 2 13 4 6 6 7 7 8 8
10 12 11 5 4 1 3 3 2 10 8 4 3 2 1 4 3 5 4 7 4 5 5 3 1 2 2 3 3 4 3 4 4 3 3 1 4 10 4 5 4 1 5 7 8
7 9 5 0 1 1 1 3 8 5 3 5 1 3 2 3 3 5 3 2 4 6 1 2 1 1 2 3 1 2 4 4 7 5 6 1 1 15 6 5 3 2 3 6 7
4 6 3 1 2 2 3 8 4 3 6 0 2 2 2 1 1 1 2 2 3 5 4 6 7 5 1 2 5 4 4 7 6 3 6 1 8 11 7 3 7 7 6 5 5
3 2 3 2 3 2 7 5 10 8 5 7 1 4 5 2 2 1 4 6 7 8 9 5 4 3 5 4 2 3 3 1 7 3 4 5 9 13 7 11 9 11 6 9 8
2 1 4 5 5 5 7 7 6 4 6 2 7 4 5 4 2 3 2 5 6 3 2 6 2 2 2 1 2 2 3 5 4 1 6 5 5 9 3 1 1 5 11 9 7
3 1 1 4 2 6 5 10 7 6 5 6 7 4 6 7 6 4 5 5 4 5 3 5 5 1 3 5 6 1 2 4 2 4 5 3 8 9 7 4 7 8 8 8 9
5 4 3 2 3 0 6 11 7 6 3 5 2 6 9 7 6 3 9 6 6 8 9 6 6 4 8 1 1 1 4 6 6 6 2 0 12 3 6 8 7 9 8 7 7
4 3 1 1 9 4 2 5 6 7 7 8 8 7 4 9 1 7 6 3 9 8 8 8 2 2 7 4 4 4 6 4 4 3 7 5 9 4 3 7 8 10 8 9 8
3 4 2 2 2 7 7 7 8 6 5 7 6 5 4 6 5 5 5 3 6 5 5 7 3 8 10 8 7 4 5 6 6 4 5 12 19 13 22 16 11 8 11 10 10
5 6 6 6 7 9 10 12 15 9 4 7 3 8 10 7 5 6 4 3 2 6 3 6 7 4 3 3 3 6 6 9 12 13 11 16 14 17 23 18 9 8 7 8 11
4 4 2 1 1 21 19 20 24 16 13 9 11 15 12 17 12 13 9 6 8 4 7 1 3 4 5 0 6 7 9 12 19 14 17 23 30 28 29 22 21 14 11 11 12
2 2 4 11 9 9 16 22 20 17 11 14 18 10 14 26 9 0 2 6 9 13 11 8 7 4 8 1 1 12 13 22 11 9 17 19 29 24 24 15 11 9 10 14 14
Wind_Direction
19 19 13 12 7 3 1 1 352 351 352 358 356 355 352 359 351 28 43 321 324 321 331 276 254 179 56 67 39 116 68 155 179 159 180 50 84 37 341 97 34 335 144 154 80
14 10 7 6 0 357 354 354 349 349 345 355 355 4 7 358 52 53 333 343 334 326 341 351 70 91 59 41 21 73 103 195 145 125 140 108 152 258 102 50 289 304 237 202 193
8 6 3 359 354 351 350 351 346 348 341 346 352 1 1 346 50 347 343 340 333 336 217 292 24 65 66 53 358 22 126 170 171 152 104 105 78 35 148 221 208 206 208 205 217
2 360 359 354 349 347 346 344 341 340 340 337 347 344 346 17 82 309 342 336 335 329 149 19 27 53 74 86 352 88 102 117 165 82 110 178 334 243 188 225 189 193 181 199 236
359 354 353 349 348 341 338 338 335 332 337 335 335 330 56 47 340 318 338 336 1 28 48 32 57 99 96 89 57 83 144 100 99 84 178 344 245 245 245 229 199 180 211 212 228
354 352 348 347 344 336 333 331 327 325 335 334 342 105 56 73 307 338 339 344 16 33 23 25 105 124 97 68 67 55 90 105 52 35 322 324 280 13 264 192 198 190 215 222 227
351 349 347 346 341 333 331 327 319 309 314 316 334 91 60 147 1 332 359 341 356 29 56 13 58 61 133 87 161 109 75 22 31 352 13 100 268 233 243 162 196 213 224 231 237
350 347 345 342 338 334 330 327 311 290 291 265 109 82 82 324 316 12 340 344 5 18 79 68 75 98 56 112 34 62 61 50 334 351 16 38 268 219 176 167 217 226 236 241 251
348 345 343 342 339 333 332 321 319 276 320 137 94 114 109 336 34 326 24 347 311 356 40 80 66 82 44 89 43 9 182 222 305 66 302 173 269 264 156 196 235 234 235 239 259
346 345 343 340 335 333 330 305 341 31 0 65 74 51 16 315 304 342 322 352 25 315 27 40 56 76 36 61 216 216 207 228 250 341 345 264 270 259 224 212 231 237 235 237 240
344 343 341 338 337 340 1 22 18 338 42 66 133 12 304 291 269 11 355 344 18 55 33 8 69 79 112 44 106 109 121 257 258 52 336 252 280 284 225 230 245 233 233 229 228
340 342 340 338 344 3 50 68 52 259 324 3 280 316 277 315 2 341 2 68 53 71 337 24 65 137 129 59 82 58 86 295 285 49 16 340 288 269 263 232 226 246 227 229 225
338 341 341 339 354 41 71 77 312 324 137 347 66 356 289 9 148 309 21 87 71 61 13 130 162 162 122 51 71 58 98 14 258 321 162 312 287 304 288 250 240 247 239 231 219
338 343 343 334 47 332 42 317 343 328 68 282 288 12 343 55 46 320 21 96 44 130 89 84 281 144 86 89 47 260 80 74 354 18 284 10 284 308 328 297 271 269 233 236 214
335 347 351 19 156 56 302 323 319 52 22 271 319 304 338 72 331 18 16 26 101 116 116 207 140 101 127 126 22 174 85 81 52 70 13 314 88 266 343 294 253 236 230 228 219
331 350 357 14 33 282 311 341 8 43 260 322 295 347 36 22 23 318 46 49 134 94 47 73 358 26 68 59 39 133 81 50 51 66 8 170 143 281 230 230 299 279 226 225 221
320 345 25 100 227 272 357 46 35 140 356 289 281 21 64 20 15 27 23 67 153 75 323 0 214 174 113 115 36 103 59 331 349 9 225 28 5 248 294 260 246 322 271 238 231
282 349 331 177 147 116 56 47 101 241 228 156 153 99 172 13 187 95 105 298 206 86 95 154 313 167 176 225 169 165 165 158 224 249 272 49 231 250 207 262 238 253 262 295 221
95 334 296 193 134 73 68 59 210 204 169 155 87 72 307 346 156 75 203 209 200 165 162 117 298 3 23 356 33 173 187 167 101 53 40 238 287 293 245 259 245 249 254 242 227
136 11 246 145 137 72 81 229 232 202 137 156 177 160 207 251 143 172 173 210 170 154 159 198 50 7 4 2 35 237 159 68 1 232 274 276 273 246 287 275 310 248 233 238 241
127 189 153 133 85 61 189 221 233 225 170 168 215 171 207 190 182 216 230 287 171 148 117 142 113 272 48 194 183 80 327 36 129 154 200 293 256 214 229 241 254 267 255 243 245
136 232 152 155 99 352 178 189 176 180 151 233 242 210 193 167 178 235 222 223 166 162 163 202 140 174 211 143 90 160 214 176 135 250 260 89 268 334 250 275 281 280 278 268 244
211 186 167 296 211 210 221 247 213 156 188 183 218 205 179 184 217 197 210 171 159 170 163 193 265 40 341 0 4 196 199 179 112 111 203 153 258 268 291 275 261 252 270 265 260
137 229 145 179 282 207 163 224 217 222 185 173 166 116 144 222 234 217 225 180 192 201 157 124 138 172 189 196 128 188 214 186 145 139 193 226 274 271 280 265 268 258 242 256 257
189 225 186 194 226 213 185 183 205 202 235 179 201 197 171 206 178 215 206 143 162 218 153 140 200 160 277 149 149 192 183 181 201 216 197 265 234 265 264 277 262 259 261 257 263
250 196 159 211 166 199 206 223 224 208 154 228 223 185 190 215 180 199 165 186 191 157 166 199 227 109 291 180 197 258 215 186 214 229 254 260 274 262 274 284 275 273 271 264 265
296 346 202 239 188 200 216 222 221 197 216 231 202 179 212 222 200 89 169 163 159 158 177 153 133 107 260 27 152 286 198 199 197 191 215 236 241 274 283 262 272 263 249 250 255